#timestamp,LO_Frequency,Hit,StdDev 
1623582015.6,286046998.6,P
1623582035.5,286046998.7,P
1623582055.3,286046996.5,P
1623582075.1,286046999.4,N
1623582095.9,286046996.9,Y
1623582115.7,286047000.7,P
1623582135.6,286047000.3,N
1623582155.4,286047000.0,N
1623582175.2,286046999.9,N
1623582195.1,286047000.1,N
1623582196.0,286047000.1,N
1623582215.8,286047000.2,N
1623582235.6,286047001.9,N
1623582255.5,286047002.6,N
1623582275.3,286047004.2,Y
1623582295.2,286047004.3,P
1623582315.9,286047004.4,N
1623582335.7,286047002.1,N
1623582355.6,286047001.3,N
1623582375.4,286047004.2,N
1623582395.2,286047004.0,N
1623582415.1,286047004.4,N
1623582416.0,286047004.4,N
1623582435.8,286047003.2,N
1623582455.7,286047005.5,Y
1623582475.5,286047002.0,P
1623582495.3,286047002.5,P
1623582545.2,286047004.3,E
1623582555.1,286047000.1,N
1623582575.9,286047001.1,P
1623582595.7,286047000.2,N
1623582615.5,286046998.6,Y
1623582635.4,286047000.8,P
1623582655.2,286046998.4,P
1623582675.1,286046998.7,N
1623582676.0,286046998.7,N
1623582695.8,286046998.3,N
1623582715.6,286046999.3,N
1623582735.5,286046996.9,Y
1623582755.3,286046996.6,P
1623582775.2,286046999.1,N
1623582795.9,286046999.0,N
1623582815.7,286046998.9,N
1623582835.6,286046999.5,N
1623582855.4,286046998.8,N
1623582875.2,286046999.0,N
1623582895.1,286047001.2,N
1623582896.0,286047001.2,N
1623582915.8,286046998.6,N
1623582935.7,286047001.1,N
1623582955.5,286047000.0,N
1623582975.3,286047000.2,N
1623582995.2,286047000.0,N
1623583015.0,286047000.2,N
1623583015.9,286047000.2,N
1623583035.8,286047000.8,N
1623583055.6,286047000.0,N
1623583075.4,286046999.9,N
1623583095.3,286047000.2,N
1623583115.1,286047002.7,N
1623583135.8,286047000.1,N
1623583155.7,286047001.0,N
1623583175.5,286047002.3,N
1623583195.3,286047000.1,N
1623583215.2,286047000.3,N
1623583235.0,286047000.2,N
1623583235.9,286047000.2,N
1623583255.8,286047000.5,N
1623583275.6,286047000.6,N
1623583295.4,286047000.5,N
1623583315.3,286046999.7,N
1623583335.1,286046999.7,N
1623583355.8,286047002.1,N
1623583375.7,286047001.8,N
1623583395.5,286047002.2,N
1623583415.4,286047004.4,Y
1623583435.2,286047002.8,P
1623583455.0,286047002.8,N
1623583455.9,286047002.8,N
1623583475.8,286047002.3,N
1623583495.6,286047000.6,N
1623583515.5,286047000.8,N
1623583535.3,286047001.1,N
1623583555.1,286047002.4,N
1623583575.9,286047001.5,N
1623583595.7,286047000.5,N
1623583615.5,286047000.8,N
1623583635.4,286046998.5,N
1623583655.2,286047000.9,N
1623583675.1,286047000.9,N
1623583676.0,286047000.9,N
1623583695.8,286047000.8,N
1623583715.6,286047000.4,N
1623583735.5,286047000.3,N
1623583755.3,286047000.0,N
1623583775.1,286047001.0,N
1623583795.9,286047000.9,N
1623583815.7,286047000.5,N
1623583835.6,286047000.3,N
1623583855.4,286047002.8,N
1623583875.2,286046999.7,N
1623583895.1,286047001.9,N
1623583896.0,286047001.9,N
1623583915.8,286047003.2,Y
1623583935.6,286047002.1,P
1623583955.5,286047002.3,P
1623583975.3,286047002.8,P
1623583995.2,286047000.0,N
1623584015.9,286047002.3,N
1623584035.7,286047001.8,N
1623584055.6,286046999.8,N
1623584075.4,286047002.8,N
1623584095.2,286047002.5,N
1623584115.1,286047001.9,N
1623584116.0,286047001.9,N
1623584135.8,286047001.8,N
1623584155.7,286047002.6,N
1623584175.5,286047002.3,N
1623584195.3,286047004.0,Y
1623584215.2,286047002.7,P
1623584235.0,286047001.1,N
1623584235.9,286047001.1,N
1623584255.7,286047000.8,N
1623584275.6,286047000.8,N
1623584295.4,286047002.8,Y
1623584315.3,286047000.4,P
1623584335.1,286047000.9,N
1623584355.8,286047000.8,N
1623584375.7,286046998.4,Y
1623584395.5,286046999.0,P
1623584415.4,286046999.6,N
1623584435.2,286046999.0,N
1623584455.0,286046998.4,N
1623584455.9,286046998.4,N
1623584475.8,286047000.9,N
1623584495.6,286046998.6,N
1623584515.4,286046998.1,N
1623584535.3,286046999.0,N
1623584555.1,286046998.1,N
1623584575.9,286047001.1,N
1623584595.7,286046999.3,N
1623584615.5,286046999.0,N
1623584635.4,286047001.2,N
1623584655.2,286046998.2,N
1623584675.0,286047000.7,N
1623584675.9,286047000.7,N
1623584695.8,286046998.2,N
1623584715.0,286046998.8,N
1623584715.9,286046998.8,N
1623584735.8,286046998.1,N
1623584755.6,286047001.2,N
1623584775.5,286046998.3,N
1623584795.3,286046999.4,N
1623584815.1,286046999.3,N
1623584835.9,286046999.6,N
1623584855.7,286046999.1,N
1623584875.5,286046999.6,N
1623584895.4,286047000.9,N
1623584915.2,286046999.0,N
1623584935.1,286046998.8,N
1623584936.0,286046998.8,N
1623584955.8,286046998.7,N
1623584975.6,286046998.5,N
1623584995.5,286047000.0,N
1623585015.3,286047002.7,N
1623585035.1,286046999.9,N
1623585055.9,286047001.1,N
1623585075.7,286047000.0,N
1623585095.6,286047002.5,N
1623585115.4,286047000.0,N
1623585135.2,286047000.9,N
1623585155.1,286046998.9,N
1623585156.0,286046998.9,N
1623585175.8,286046999.4,N
1623585195.7,286046998.4,N
1623585215.5,286046998.7,N
1623585235.3,286046998.7,N
1623585255.2,286046998.6,N
1623585275.0,286047000.4,N
1623585275.9,286047000.4,N
1623585295.7,286047000.0,N
1623585315.6,286047000.9,N
1623585335.4,286046999.7,N
1623585355.3,286046999.9,N
1623585375.1,286047002.2,N
1623585376.0,286047002.2,N
1623585395.8,286046999.7,N
1623585415.7,286047000.7,N
1623585435.5,286047001.2,N
1623585455.4,286046998.6,N
1623585475.2,286047001.2,N
1623585495.0,286047001.0,N
1623585495.9,286047001.0,N
1623585515.8,286047002.8,N
1623585535.6,286047002.0,N
1623585555.5,286046999.8,N
1623585575.3,286047001.4,N
1623585595.1,286047001.9,N
